| time (UTC) | temp F | wind direction | speed MPH | gust MPH | rain 1hr in | rain 24hr in | rain mn in | humidity % | barometer mb |
| 20260504130707 | 62 | 15 | 4.0 | 9.0 | 0.00 | 0.00 | 0.00 | 78 | 1013.4 |
| 20260504130218 | 62 | 311 | 3.0 | 9.0 | 0.00 | 0.00 | 0.00 | 76 | 1013.4 |
| 20260504110714 | 60 | 319 | 3.0 | 9.0 | 0.00 | 0.00 | 0.00 | 80 | 1013.4 |
| 20260504100206 | 61 | 331 | 3.0 | 9.0 | 0.00 | 0.02 | 0.00 | 81 | 1013.5 |
| 20260504081719 | 60 | 301 | 2.0 | 8.0 | 0.00 | 0.07 | 0.00 | 84 | 1013.1 |
| 20260504081216 | 60 | 281 | 2.0 | 7.0 | 0.00 | 0.07 | 0.00 | 84 | 1013.2 |
| 20260504080719 | 60 | 298 | 2.0 | 7.0 | 0.00 | 0.07 | 0.00 | 85 | 1013.1 |
| 20260504080209 | 60 | 303 | 1.0 | 7.0 | 0.00 | 0.07 | 0.00 | 85 | 1013.0 |
| 20260504070215 | 58 | 282 | 0.0 | 2.0 | 0.00 | 0.07 | 0.00 | 92 | 1012.4 |
| 20260504060209 | 55 | 306 | 0.0 | 1.0 | 0.00 | 0.07 | 0.00 | 93 | 1012.1 |
| 20260504050711 | 56 | 138 | 0.0 | 3.0 | 0.00 | 0.07 | 0.00 | 93 | 1011.7 |
| 20260504050219 | 55 | 138 | 1.0 | 3.0 | 0.00 | 0.07 | 0.00 | 93 | 1011.7 |
| 20260504045711 | 55 | 138 | 1.0 | 3.0 | 0.00 | 0.07 | 0.00 | 93 | 1011.6 |
| 20260504045208 | 55 | 202 | 0.0 | 2.0 | 0.00 | 0.07 | 0.00 | 93 | 1011.6 |
| 20260504044716 | 55 | 202 | 0.0 | 2.0 | 0.00 | 0.07 | 0.00 | 93 | 1011.4 |
| 20260504044218 | 55 | 202 | 0.0 | 2.0 | 0.00 | 0.07 | 0.00 | 93 | 1011.4 |
| 20260504043713 | 55 | 202 | 0.0 | 3.0 | 0.00 | 0.07 | 0.00 | 93 | 1011.4 |
| 20260504042212 | 55 | 202 | 0.0 | 3.0 | 0.00 | 0.07 | 0.00 | 93 | 1011.2 |
| 20260504041212 | 55 | 201 | 0.0 | 2.0 | 0.00 | 0.07 | 0.00 | 93 | 1011.2 |
| 20260504040716 | 55 | 201 | 0.0 | 2.0 | 0.00 | 0.07 | 0.00 | 93 | 1011.3 |
| 20260504040214 | 55 | 201 | 0.0 | 2.0 | 0.00 | 0.07 | 0.00 | 93 | 1011.2 |
| 20260504035712 | 56 | 202 | 0.0 | 2.0 | 0.00 | 0.07 | 0.00 | 93 | 1011.2 |
| 20260504035218 | 56 | 201 | 0.0 | 2.0 | 0.00 | 0.07 | 0.00 | 93 | 1011.3 |
| 20260504034717 | 56 | 201 | 0.0 | 1.0 | 0.00 | 0.07 | 0.00 | 93 | 1011.2 |
| 20260504033705 | 55 | 201 | 0.0 | 1.0 | 0.00 | 0.07 | 0.00 | 93 | 1011.2 |
| 20260504032715 | 55 | 201 | 0.0 | 0.0 | 0.00 | 0.07 | 0.00 | 92 | 1011.2 |
| 20260504032216 | 55 | 201 | 0.0 | 0.0 | 0.00 | 0.07 | 0.00 | 92 | 1011.3 |
| 20260504031719 | 55 | 201 | 0.0 | 0.0 | 0.00 | 0.07 | 0.00 | 92 | 1011.3 |
| 20260504031208 | 55 | 202 | 0.0 | 0.0 | 0.00 | 0.07 | 0.00 | 92 | 1011.4 |
| 20260504030719 | 55 | 202 | 0.0 | 0.0 | 0.00 | 0.07 | 0.00 | 92 | 1011.5 |
| 20260504030206 | 55 | 202 | 0.0 | 0.0 | 0.00 | 0.07 | 0.00 | 92 | 1011.5 |
| 20260504025716 | 55 | 202 | 0.0 | 0.0 | 0.00 | 0.07 | 0.00 | 92 | 1011.5 |
| 20260504025210 | 55 | 202 | 0.0 | 2.0 | 0.00 | 0.07 | 0.00 | 92 | 1011.4 |
| 20260504024720 | 55 | 201 | 0.0 | 2.0 | 0.00 | 0.07 | 0.00 | 92 | 1011.4 |
| 20260504024212 | 55 | 202 | 0.0 | 3.0 | 0.00 | 0.08 | 0.00 | 92 | 1011.4 |
| 20260504023713 | 55 | 202 | 0.0 | 3.0 | 0.00 | 0.09 | 0.00 | 92 | 1011.3 |
| 20260504023217 | 55 | 202 | 0.0 | 3.0 | 0.00 | 0.10 | 0.00 | 92 | 1011.3 |
| 20260504022217 | 55 | 202 | 0.0 | 1.0 | 0.00 | 0.12 | 0.00 | 92 | 1011.2 |
| 20260504021713 | 55 | 202 | 0.0 | 0.0 | 0.00 | 0.13 | 0.00 | 92 | 1011.3 |
| 20260504021206 | 55 | 202 | 0.0 | 0.0 | 0.00 | 0.13 | 0.00 | 92 | 1011.3 |
| 20260504020707 | 55 | 202 | 0.0 | 0.0 | 0.00 | 0.13 | 0.00 | 92 | 1011.3 |
| 20260504020212 | 55 | 202 | 0.0 | 0.0 | 0.00 | 0.13 | 0.00 | 92 | 1011.3 |
| 20260504014719 | 55 | 202 | 0.0 | 0.0 | 0.00 | 0.13 | 0.00 | 92 | 1011.3 |
| 20260504014212 | 56 | 202 | 0.0 | 0.0 | 0.00 | 0.13 | 0.00 | 92 | 1011.3 |
| 20260504013709 | 56 | 202 | 0.0 | 0.0 | 0.00 | 0.13 | 0.00 | 92 | 1011.4 |
| 20260504013218 | 56 | 202 | 0.0 | 1.0 | 0.00 | 0.13 | 0.00 | 92 | 1011.4 |
| 20260504012708 | 56 | 202 | 0.0 | 1.0 | 0.00 | 0.13 | 0.00 | 91 | 1011.3 |
| 20260504011212 | 56 | 202 | 0.0 | 0.0 | 0.00 | 0.14 | 0.00 | 91 | 1011.4 |
| 20260504010716 | 56 | 202 | 0.0 | 1.0 | 0.00 | 0.14 | 0.00 | 91 | 1011.3 |
| 20260504005219 | 56 | 202 | 0.0 | 0.0 | 0.00 | 0.14 | 0.00 | 91 | 1011.2 |
| 20260504004720 | 56 | 201 | 0.0 | 0.0 | 0.00 | 0.14 | 0.00 | 91 | 1011.2 |
| 20260504004214 | 56 | 201 | 0.0 | 1.0 | 0.00 | 0.14 | 0.00 | 91 | 1011.2 |
| 20260504003717 | 56 | 202 | 0.0 | 2.0 | 0.00 | 0.14 | 0.00 | 91 | 1011.3 |
| 20260504002707 | 56 | 202 | 0.0 | 2.0 | 0.00 | 0.14 | 0.00 | 91 | 1011.3 |
| 20260504002214 | 56 | 201 | 0.0 | 1.0 | 0.00 | 0.14 | 0.00 | 91 | 1011.2 |
| 20260504001707 | 56 | 201 | 0.0 | 2.0 | 0.00 | 0.14 | 0.00 | 91 | 1011.2 |
| 20260504000206 | 57 | 201 | 0.0 | 2.0 | 0.00 | 0.14 | 0.00 | 91 | 1011.2 |
| 20260503235720 | 57 | 202 | 0.0 | 0.0 | 0.00 | 0.14 | 0.00 | 91 | 1011.3 |
| 20260503235211 | 57 | 202 | 0.0 | 0.0 | 0.00 | 0.14 | 0.00 | 91 | 1011.3 |
| 20260503234716 | 57 | 201 | 0.0 | 0.0 | 0.00 | 0.14 | 0.00 | 91 | 1011.3 |
| 20260503234212 | 57 | 201 | 0.0 | 2.0 | 0.00 | 0.14 | 0.00 | 91 | 1011.4 |
| 20260503233713 | 57 | 201 | 0.0 | 3.0 | 0.00 | 0.14 | 0.00 | 91 | 1011.4 |
| 20260503233205 | 57 | 201 | 0.0 | 3.0 | 0.00 | 0.14 | 0.00 | 91 | 1011.4 |
| 20260503232706 | 57 | 201 | 0.0 | 1.0 | 0.00 | 0.14 | 0.00 | 91 | 1011.4 |
| 20260503232215 | 57 | 201 | 0.0 | 1.0 | 0.00 | 0.15 | 0.00 | 91 | 1011.4 |
| 20260503231715 | 57 | 201 | 0.0 | 1.0 | 0.00 | 0.15 | 0.00 | 91 | 1011.4 |
| 20260503231217 | 57 | 201 | 0.0 | 1.0 | 0.00 | 0.15 | 0.00 | 91 | 1011.3 |
| 20260503230719 | 57 | 201 | 0.0 | 1.0 | 0.00 | 0.15 | 0.00 | 91 | 1011.4 |
| 20260503230216 | 57 | 201 | 0.0 | 1.0 | 0.00 | 0.15 | 0.00 | 91 | 1011.3 |
| 20260503225712 | 57 | 201 | 0.0 | 1.0 | 0.00 | 0.15 | 0.00 | 90 | 1011.3 |
| 20260503225216 | 57 | 201 | 0.0 | 1.0 | 0.00 | 0.15 | 0.00 | 90 | 1011.3 |
| 20260503224711 | 57 | 201 | 0.0 | 2.0 | 0.00 | 0.15 | 0.00 | 90 | 1011.4 |
| 20260503224209 | 58 | 201 | 0.0 | 2.0 | 0.00 | 0.15 | 0.00 | 90 | 1011.3 |
| 20260503223714 | 58 | 201 | 0.0 | 2.0 | 0.00 | 0.15 | 0.00 | 90 | 1011.3 |
| 20260503223208 | 58 | 201 | 0.0 | 4.0 | 0.00 | 0.15 | 0.00 | 90 | 1011.4 |
| 20260503222709 | 58 | 201 | 0.0 | 4.0 | 0.00 | 0.15 | 0.00 | 90 | 1011.4 |
| 20260503222211 | 58 | 201 | 0.0 | 4.0 | 0.00 | 0.15 | 0.00 | 90 | 1011.5 |
| 20260503220718 | 58 | 117 | 0.0 | 4.0 | 0.00 | 0.15 | 0.00 | 90 | 1011.3 |
| 20260503215707 | 58 | 164 | 1.0 | 3.0 | 0.00 | 0.15 | 0.15 | 90 | 1011.2 |
| 20260503215206 | 58 | 142 | 0.0 | 3.0 | 0.00 | 0.15 | 0.15 | 90 | 1011.2 |
| 20260503214712 | 58 | 142 | 0.0 | 3.0 | 0.00 | 0.15 | 0.15 | 89 | 1011.1 |
| 20260503214215 | 58 | 180 | 0.0 | 3.0 | 0.00 | 0.15 | 0.15 | 89 | 1011.1 |
| 20260503213711 | 58 | 180 | 0.0 | 3.0 | 0.00 | 0.15 | 0.15 | 89 | 1011.1 |
| 20260503213210 | 58 | 163 | 0.0 | 4.0 | 0.00 | 0.15 | 0.15 | 89 | 1011.1 |
| 20260503212705 | 58 | 184 | 0.0 | 4.0 | 0.00 | 0.15 | 0.15 | 89 | 1011.1 |
| 20260503212212 | 58 | 195 | 1.0 | 4.0 | 0.00 | 0.15 | 0.15 | 89 | 1011.1 |
| 20260503211711 | 58 | 177 | 1.0 | 4.0 | 0.00 | 0.16 | 0.15 | 89 | 1011.2 |
| 20260503211207 | 58 | 169 | 0.0 | 4.0 | 0.00 | 0.17 | 0.15 | 89 | 1011.1 |
| 20260503210714 | 58 | 153 | 0.0 | 4.0 | 0.00 | 0.17 | 0.15 | 89 | 1011.1 |
| 20260503210218 | 58 | 153 | 0.0 | 3.0 | 0.00 | 0.17 | 0.15 | 89 | 1011.1 |
| 20260503205709 | 58 | 132 | 0.0 | 4.0 | 0.00 | 0.18 | 0.15 | 88 | 1011.1 |
| 20260503205212 | 58 | 188 | 0.0 | 4.0 | 0.00 | 0.18 | 0.15 | 88 | 1011.1 |
| 20260503204220 | 59 | 182 | 0.0 | 5.0 | 0.00 | 0.20 | 0.15 | 88 | 1011.1 |
| 20260503203716 | 59 | 139 | 1.0 | 5.0 | 0.00 | 0.21 | 0.15 | 88 | 1011.1 |
| 20260503203207 | 59 | 196 | 1.0 | 5.0 | 0.00 | 0.23 | 0.15 | 88 | 1011.2 |
| 20260503202210 | 59 | 159 | 0.0 | 5.0 | 0.00 | 0.23 | 0.15 | 88 | 1011.3 |
| 20260503201717 | 59 | 182 | 0.0 | 3.0 | 0.00 | 0.23 | 0.15 | 88 | 1011.1 |
| 20260503201216 | 59 | 154 | 0.0 | 3.0 | 0.00 | 0.23 | 0.15 | 88 | 1011.0 |
| 20260503200709 | 59 | 154 | 0.0 | 3.0 | 0.00 | 0.23 | 0.15 | 88 | 1011.0 |
| 20260503200216 | 60 | 154 | 0.0 | 4.0 | 0.00 | 0.23 | 0.15 | 87 | 1010.9 |
| 20260503195715 | 60 | 154 | 0.0 | 4.0 | 0.00 | 0.23 | 0.15 | 87 | 1010.9 |
| 20260503195218 | 60 | 154 | 1.0 | 4.0 | 0.00 | 0.23 | 0.15 | 87 | 1010.8 |
| 20260503194708 | 60 | 144 | 0.0 | 3.0 | 0.00 | 0.23 | 0.15 | 87 | 1010.8 |
| 20260503194208 | 60 | 186 | 0.0 | 3.0 | 0.00 | 0.23 | 0.15 | 87 | 1010.7 |
| 20260503193708 | 60 | 186 | 0.0 | 3.0 | 0.00 | 0.23 | 0.15 | 87 | 1010.7 |
| 20260503193216 | 60 | 186 | 0.0 | 3.0 | 0.00 | 0.23 | 0.15 | 87 | 1010.6 |
| 20260503192716 | 60 | 189 | 0.0 | 3.0 | 0.00 | 0.23 | 0.15 | 87 | 1010.6 |
| 20260503191706 | 60 | 151 | 0.0 | 3.0 | 0.00 | 0.23 | 0.15 | 87 | 1010.4 |
| 20260503191208 | 60 | 151 | 0.0 | 5.0 | 0.00 | 0.23 | 0.15 | 87 | 1010.3 |
| 20260503190718 | 60 | 151 | 0.0 | 5.0 | 0.00 | 0.23 | 0.15 | 87 | 1010.2 |
| 20260503190206 | 60 | 171 | 1.0 | 5.0 | 0.00 | 0.23 | 0.15 | 87 | 1010.1 |
| 20260503185709 | 61 | 163 | 2.0 | 5.0 | 0.00 | 0.23 | 0.15 | 87 | 1010.1 |
| 20260503185211 | 61 | 138 | 2.0 | 7.0 | 0.00 | 0.23 | 0.15 | 87 | 1010.1 |
| 20260503184718 | 61 | 139 | 2.0 | 7.0 | 0.00 | 0.23 | 0.15 | 87 | 1010.1 |
| 20260503184206 | 61 | 186 | 2.0 | 5.0 | 0.00 | 0.23 | 0.15 | 87 | 1010.1 |
| 20260503183718 | 62 | 151 | 1.0 | 5.0 | 0.00 | 0.23 | 0.15 | 87 | 1010.1 |
| 20260503183212 | 62 | 161 | 1.0 | 5.0 | 0.00 | 0.23 | 0.15 | 87 | 1010.1 |
| 20260503182706 | 62 | 175 | 1.0 | 5.0 | 0.00 | 0.23 | 0.15 | 87 | 1010.0 |
| 20260503181220 | 62 | 196 | 0.0 | 5.0 | 0.00 | 0.23 | 0.15 | 87 | 1009.9 |
| 20260503180706 | 62 | 153 | 0.0 | 4.0 | 0.00 | 0.23 | 0.15 | 86 | 1009.8 |
| 20260503180220 | 62 | 154 | 1.0 | 4.0 | 0.00 | 0.23 | 0.15 | 86 | 1009.7 |
| 20260503175709 | 62 | 182 | 0.0 | 3.0 | 0.00 | 0.23 | 0.15 | 86 | 1009.7 |
| 20260503175211 | 62 | 121 | 0.0 | 3.0 | 0.00 | 0.23 | 0.15 | 86 | 1009.6 |
| 20260503174207 | 63 | 148 | 1.0 | 6.0 | 0.00 | 0.23 | 0.15 | 85 | 1009.5 |
| 20260503173214 | 63 | 217 | 1.0 | 5.0 | 0.00 | 0.23 | 0.15 | 85 | 1009.5 |
| 20260503172712 | 63 | 184 | 1.0 | 5.0 | 0.00 | 0.23 | 0.15 | 84 | 1009.6 |
| 20260503171713 | 63 | 209 | 1.0 | 5.0 | 0.00 | 0.23 | 0.15 | 84 | 1009.7 |
| 20260503171206 | 63 | 213 | 1.0 | 5.0 | 0.00 | 0.23 | 0.15 | 84 | 1009.6 |
| 20260503170715 | 63 | 157 | 1.0 | 5.0 | 0.00 | 0.23 | 0.15 | 84 | 1009.6 |
| 20260503150708 | 65 | 155 | 2.0 | 7.0 | 0.00 | 0.23 | 0.15 | 75 | 1009.6 |
| 20260503150208 | 66 | 252 | 2.0 | 7.0 | 0.00 | 0.23 | 0.15 | 75 | 1009.6 |